www.pogodaiklimat.ru

Погода и климат >> Архив погоды >> Аргентина >> Азул


ПОГОДА в Азуле

  • Прогноз погоды в Азуле
  • Монитор погоды в Азуле

АРХИВ ПОГОДЫ в Азуле

Время (UTC), дата Ветер
(напр.,м/с)
 
Видим.   Явления Облачность Т
(С)
Тd
(С)
f
(%)
Тe
(С)
Тes
(С)
Комфортность P
(гПа)
Po
(гПа)
Тmin
(С)
Tmax
(С)
R
(мм)
R24
(мм)
S
(см)
12 15.05 штиль 0 100 м туман ясно +2.8 +2.3 97 +2 +2 1028.7 1010.2 +0.4 +7.8
15 15.05 С 3 13 км дымка {туман} 10/10 330 м
[St]
+15.4 +10.5 73 +15 +20 1028.0 1010.0
18 15.05 СЗ 8 15 км 1/0
[Ci fib]
+18.3 +8.6 53 +18 +19 1025.5 1007.6
21 15.05 С 5 15 км 1/0
[Ci fib]
+15.7 +8.7 63 +15 +15 1025.3 1007.2
00 16.05 штиль 0 15 км ясно +7.2 +5.9 91 +6 +6 1026.1 1007.8 +2.8 +18.3
03 16.05 штиль 0 15 км ясно +5.4 +4.9 97 +4 +4 1026.0 1008.0
06 16.05 штиль 0 15 км ясно +8.6 +7.8 95 +8 +8 1025.1 1007.3
09 16.05 С 1 15 км ясно +9.0 +8.2 95 +8 +8 1024.2 1006.4
12 16.05 С 2 6000 м дымка 4/0
[Ci]
+9.7 +7.8 88 +8 +9 1024.5 1006.4 +3.3 +9.7
15 16.05 С 5 15 км дымка 3/0
[Ci fib]
+17.7 +10.1 61 +17 +21 1024.0 1006.1
18 16.05 С 9 15 км 6/4 1170 м
[Cu hum Ci]
+20.5 +11.0 54 +22 +22 комфорт 1021.2 1003.6
21 16.05 С 3 15 км 8/3 800 м
[Cu hum Cs]
+17.9 +11.4 66 +18 +18 1019.9 1002.2
00 17.05 СВ 9 15 км 8/0
[Cs]
+15.6 +12.4 81 +14 +14 1019.7 1002.0 +9.4 +20.5
03 17.05 С 9 15 км 10/0
[Cs]
+14.4 +12.4 88 +12 +12 1019.7 1002.2
06 17.05 С 7 15 км 8/0
[Cs]
+13.0 +11.7 92 +10 +10 1018.4 1001.0
09 17.05 С 4 9000 м дымка 5/1 900 м
[St Ac As Ci fib]
+12.7 +12.0 96 +11 +11 1017.1 999.6
12 17.05 С 8 6000 м дымка 6/4 300 м
[St Ac As Ci fib]
+14.5 +13.3 93 +12 +12 1017.0 999.4 +12.6 +15.6
15 17.05 С 6 8000 м 8/5 750 м
[St Ac As]
+17.9 +15.0 83 +17 +18 1016.5 999.0
18 17.05 С 8 15 км 8/3 1050 м
[Cu med, cong Ac As]
+21.2 +15.2 69 +24 +25 комфорт 1013.7 996.4
21 17.05 С 4 15 км 6/0
[Ac trans Cs]
+19.7 +15.2 75 +22 +22 комфорт 1012.6 995.2
00 18.05 СВ 3 15 км 9/0
[Ac As Cs]
+17.6 +14.9 84 +18 +18 1013.9 996.5 +14.5 +21.9
03 18.05 С 9 15 км в посл. час дождь 10/0
[Ac As]
+16.7 +14.8 89 +15 +15 1014.0 996.6
06 18.05 С 6 15 км {дождь} 9/0
[Ac As Cs]
+17.5 +15.3 87 +17 +17 1013.5 996.2 0.0
09 18.05 З 5 15 км 10/10 600 м
[St]
+16.6 +15.4 93 +16 +16 1013.5 996.2
12 18.05 штиль 0 6000 м морось {дождь} 10/10 450 м
[St]
+16.2 +15.7 97 +16 +16 1014.5 997.0 +15.8 +17.6 2
15 18.05 Ю 3 4000 м дождь {морось} 10/10 360 м
[St]
+13.2 +12.1 93 +12 +12 1016.4 998.9
18 18.05 Ю 5 4000 м дождь {морось} 10/10 360 м
[St]
+12.6 +12.2 97 +10 +10 1014.8 997.3 21
21 18.05 Ю 1 15 км {дождь} 8/5 600 м
[St Ac As Cs]
+12.6 +11.9 95 +12 +12 1016.5 999.0
00 19.05 ЮЗ 1 15 км {дождь} 3/0
[Ac As]
+10.4 +9.4 94 +10 +10 1017.9 1000.2 +10.1 +17.6 3
03 19.05 штиль 0 15 км ясно +6.8 +6.4 97 +6 +6 1019.1 1001.2
12 19.05 С 1 8000 м в посл. час туман туман ясно +2.5 +2.0 96 +1 +1 1020.3 1002.2 +1.0 +10.5 23
15 19.05 штиль 0 20 км ясно +13.7 +8.4 70 +13 +21 1020.4 1002.5
18 19.05 СЗ 2 20 км ясно +16.3 +6.1 51 +17 +21 1018.4 1000.5
21 19.05 штиль 0 20 км 3/0
[Ac trans Ci fib]
+13.5 +7.2 66 +13 +13 1018.4 1000.4
00 20.05 СЗ 1 15 км 4/0
[Cs]
+7.8 +6.3 90 +7 +7 1020.0 1001.8 +2.5 +16.5
03 20.05 штиль 0 15 км 5/0
[Ci]
+5.1 +4.4 95 +4 +4 1021.0 1002.8
06 20.05 штиль 0 15 км 10/0
[Cs]
+3.9 +3.4 97 +3 +3 1020.2 1002.2
09 20.05 штиль 0 15 км 4/0
[Cs]
+3.4 +2.7 95 +2 +2 1020.3 1002.2
12 20.05 штиль 0 15 км 6/0
[Ac As Ci]
+4.2 +2.7 90 +3 +4 1021.9 1003.7 +2.4 +7.8
15 20.05 ЮВ 2 15 км 8/0
[Ac As Ci]
+13.2 +8.4 73 +13 +16 1022.8 1004.8
18 20.05 В 3 15 км 9/0
[Ac As Ci]
+14.8 +6.2 56 +14 +16 1021.2 1003.3
21 20.05 ЮВ 3 15 км 10/0
[Ac As]
+13.1 +7.0 66 +12 +12 1021.0 1003.0
00 21.05 ЮВ 5 15 км 10/0
[Ac As]
+11.5 +9.1 85 +9 +9 1022.8 1004.6 +4.2 +15.2
03 21.05 ЮВ 3 15 км 9/3 900 м
[St Ac As]
+10.2 +8.6 90 +8 +8 1023.9 1006.1
06 21.05 ЮВ 6 15 км 10/0
[Ac As]
+9.5 +7.6 88 +6 +6 1024.0 1006.2
09 21.05 ЮВ 6 15 км 10/0
[Ac As]
+8.4 +6.9 90 +4 +4 1023.6 1005.7
12 21.05 ЮВ 4 15 км 9/0
[Ac As Cs]
+8.4 +6.0 85 +5 +5 1025.3 1007.3 +7.9 +11.5
15 21.05 Ю 8 15 км 8/3 600 м
[St Ac As Cs]
+11.9 +6.2 68 +9 +9 1026.3 1008.4
18 21.05 Ю 7 15 км 8/3 600 м
[St Ac As Cs]
+12.3 +2.2 50 +10 +10 1024.8 1006.9
21 21.05 ЮВ 2 15 км 8/6 750 м
[Sc Ac As Cs]
+9.6 +3.4 65 +8 +8 1025.7 1007.7
00 22.05 штиль 0 15 км 9/6 750 м
[Sc Cs]
+6.4 +3.6 82 +6 +6 1026.7 1008.6 +6.4 +12.5
03 22.05 Ю 1 15 км 6/0
[Ac As Ci]
+3.9 +2.7 92 +2 +2 1026.5 1008.4
06 22.05 Ю 1 15 км 6/0
[Ci]
+3.3 +2.0 91 +2 +2 1026.3 1008.2
09 22.05 штиль 0 15 км 3/0
[Cs]
+2.2 +1.4 94 +1 +1 1025.5 1007.3

 

Местоположение метеостанции Азул (Аргентина): широта -36.83 долгота -59.88 высота над уровнем моря 147 м.

В архиве по умолчанию представлена погода в Азуле за последнюю неделю. Архивные данные за месяц целиком и за предыдущие месяцы, начиная с января 2011 года, Вы можете получить, выбрав интересующий диапазон дат из раскрывающегося списка и нажав кнопку "Ввод!".


*Определитесь, кто Вы:
робот инопланетянин человек

Внимание! Время в таблицах - всемирное. Для получения местного времени необходимо прибавить поправку, которая равна -3 ч.

Смотрите также архив погоды в соседних городах и на ближайших метеорологических станциях:

Погода в Тандиле (Аргентина) (71 км)
Погода в Лас Флоресе (Аргентина) (110 км)
Погода в Боливаре (Аргентина) (127 км)
Погода в Трес Арройос (Аргентина) (170 км)
Погода в Долоресе (Аргентина) (201 км)
Погода в Мар-дель-Плате (Аргентина) (237 км)
Погода в Эсейсе (Аргентина) (256 км)
Погода в Хунине (Аргентина) (270 км)
Погода в Ла-Плате (Аргентина) (274 км)
Погода в Буэнос-Айресе (Аргентина) (280 км)

Пояснения к столбцам:

Ветер - указаны скорость ветра в м/с - средняя за 10 мин, порывы в срок и между сроками (в фигурных скобках) и направление, откуда дует ветер: С - северный, СВ - северо-восточный, В - восточный, ЮВ - юго-восточный, Ю - южный, ЮЗ - юго-западный, З - западный, СЗ - северо-западный.
Видимость - горизонтальная дальность видимости в метрах или километрах. При видимости от 1 до 10 км при отсутствии осадков обычно наблюдается дымка, при ухудшении видимости до 1 км и менее - туман. В сухую погоду видимость может ухудшаться дымом, пылью или мглою.
Явления - указаны атмосферные явления, наблюдавшиеся в срок или в последний час перед сроком; фигурными скобками обозначены явления, наблюдавшиеся между сроками (за 1-3 часа до срока); квадратными скобками обозначены град или гололедные отложения с указанием их диаметра в мм.
Облачность - указаны через наклонную черту общая и нижняя облачность в баллах и высота нижней границы облаков в метрах; квадратными скобками обозначены формы облаков: Ci - перистые, Cs - перисто-слоистые, Cc - перисто-кучевые, Ac - высококучевые, As - высокослоистые, Sc - слоисто-кучевые, Ns - слоисто-дождевые, Cu - кучевые, Cb - кучево-дождевые. Подробнее классификацию облаков см. в Атласе облаков (PDF).
T - Температура воздуха - температура, измеренная на высоте 2 м над землей.
Td - Температура точки росы - температура, при понижении до которой содержащийся в воздухе водяной пар достигнет насыщения.
f - Относительная влажность воздуха - влажноcть воздуха, измеренная на высоте 2 м над землей.
Te - Эффективная температура - температура, которую ощущает одетый по сезону человек в тени. Характеристика душности погоды. При расчете учитывается влияние влажности воздуха и скорости ветра на теплоощущения человека.
Tes - Эффективная температура на солнце - температура, которую ощущает человек, с поправкой на солнечный нагрев. Характеристика знойности погоды. Зависит от высоты солнца над горизонтом, облачности и скорости ветра. Ночью, в пасмурную погоду, а также при ветре 12 м/с и более поправка равна нулю.
P - Атмосферное давление - приведенное к уровню моря атмосферное давление.
Po - Атмосферное давление - измеренное на уровне метеостанции атмосферное давление.
Tmin - Минимальная температура - минимум температуры воздуха на высоте 2 м над землей.
Tmax - Максимальная температура - максимум температуры воздуха на высоте 2 м над землей.
R - Количество осадков - Количество выпавших осадков за период времени, мм. При наведении курсора мыши на число - период времени, за который выпало указанное количество осадков.
R24 - Количество осадков - Количество выпавших осадков за 24 часа, мм.
S - Снежный покров - Высота снежного покрова, см. При наведении курсора мыши на число - состояние снежного покрова и степень покрытия местности в баллах.